Temperature
18 18 18 18 18 17 17 17 17 17 17 17 17 17 17 17 18 18 18 18 18 18 18 17 17 17 17 17 17 17 17 17 17 17 16 16 16 16 16 16 16 16 16
18 18 17 17 17 17 17 17 17 17 17 17 17 17 17 17 17 17 17 17 18 18 18 17 17 17 17 17 17 17 17 17 17 17 17 16 16 16 16 16 16 16 16
17 17 17 17 17 17 17 17 17 17 17 17 17 17 17 17 17 17 17 17 17 17 18 17 17 17 17 17 17 17 17 17 17 17 16 16 16 16 16 16 16 16 16
18 17 17 17 17 17 17 17 17 17 17 17 17 17 17 17 17 17 17 17 17 17 17 17 17 17 17 17 17 17 17 17 17 17 17 17 16 16 16 16 16 16 16
17 17 17 17 17 17 17 17 17 17 17 17 17 17 17 17 17 17 17 17 17 17 17 17 17 17 17 17 17 17 17 17 17 17 17 16 16 16 16 16 16 16 16
17 17 17 17 17 17 17 17 17 17 17 17 17 17 17 17 17 17 17 17 17 17 17 17 17 17 17 17 17 17 17 17 17 17 17 16 16 16 16 16 16 16 16
17 17 17 17 17 17 17 17 17 17 17 17 17 17 17 17 17 17 17 17 17 17 17 17 17 17 17 17 17 17 17 17 17 17 16 16 16 16 16 16 16 16 16
17 17 17 17 17 17 17 17 17 17 17 17 17 17 18 18 17 17 17 17 17 17 16 16 17 16 16 16 16 17 17 17 17 17 16 16 16 16 16 16 16 16 16
17 17 17 17 17 17 17 17 17 17 17 17 17 17 18 18 17 17 17 17 16 16 16 16 16 16 16 16 16 16 16 16 16 16 16 16 16 16 16 16 15 15 15
17 17 17 17 17 17 17 16 16 16 16 16 17 16 16 17 17 17 17 17 16 16 16 16 16 16 16 16 16 16 16 16 16 16 16 16 16 16 16 16 15 15 15
17 17 17 17 17 16 16 16 16 16 16 16 16 16 16 16 16 17 17 16 16 16 16 16 16 16 16 16 16 16 16 16 16 16 16 16 16 16 15 15 15 15 15
16 16 16 16 16 16 16 16 16 16 16 16 16 16 16 16 16 16 17 16 16 16 16 16 16 16 16 16 15 16 16 16 16 16 16 16 15 15 15 15 15 15 15
16 16 16 16 16 16 16 16 16 16 16 16 16 16 16 16 16 16 16 16 16 16 16 16 16 15 15 15 15 15 15 16 16 15 15 15 15 15 15 15 15 15 15
16 16 16 16 16 16 16 16 15 16 16 15 15 15 16 15 15 15 16 16 16 16 16 15 15 15 15 15 15 15 15 15 15 15 15 15 15 15 15 15 15 15 15
15 16 16 16 16 16 16 15 15 15 15 15 15 15 15 15 15 15 15 15 15 16 16 15 15 15 15 15 15 15 14 15 15 15 15 15 15 15 15 15 15 15 15
15 15 15 15 15 15 15 15 15 15 15 15 15 15 15 15 15 15 15 15 15 15 16 15 15 15 14 14 15 14 14 14 15 15 15 15 15 15 15 15 15 15 14
15 15 15 15 15 15 15 15 15 15 15 15 15 15 15 15 15 15 15 15 15 15 15 15 15 14 14 14 14 14 14 14 14 14 14 14 14 14 14 14 14 14 14
15 15 15 15 15 15 15 15 15 15 14 14 14 14 14 14 14 14 14 14 14 14 14 14 14 14 14 14 14 14 14 14 14 14 14 14 14 14 14 14 14 14 14
15 15 15 15 15 14 14 14 14 14 14 14 14 14 14 14 14 14 14 14 14 14 14 14 14 14 14 14 13 13 13 13 13 13 14 13 14 14 14 14 14 14 14
15 14 14 14 14 14 14 14 14 14 14 14 14 14 13 13 13 13 13 13 13 13 14 14 14 14 13 13 13 13 13 13 13 13 13 13 13 13 13 13 13 13 13
14 14 14 14 14 14 14 14 14 14 14 13 13 13 13 13 13 13 13 13 13 13 13 14 13 13 13 13 13 13 13 13 13 12 13 13 13 13 13 13 13 13 13
14 14 14 13 13 13 14 14 14 13 13 13 13 13 13 13 13 13 13 13 13 13 13 13 13 13 12 12 12 12 12 12 12 12 12 12 12 12 12 12 12 13 13
13 13 13 13 13 13 14 14 14 13 13 13 13 13 13 13 13 13 13 13 13 13 13 12 12 12 12 12 12 12 12 12 12 12 12 12 12 12 12 12 12 12 12
13 13 13 13 13 13 13 13 13 13 13 12 12 12 12 12 12 12 12 12 12 12 12 12 12 12 12 12 12 12 11 11 12 12 11 11 12 12 12 12 12 12 12
13 13 13 13 13 13 13 13 13 13 12 12 12 12 12 12 12 12 12 12 12 12 12 12 12 12 12 12 12 11 11 11 12 12 11 11 11 11 11 12 12 12 12
13 13 13 12 12 12 12 12 12 12 12 12 12 12 12 12 12 12 11 11 11 11 11 11 11 11 11 11 11 11 11 11 11 11 11 11 11 11 11 11 11 11 11
Wind_Speed
0 0 0 0 1 1 2 2 2 2 2 3 4 4 4 4 5 5 4 7 8 8 9 9 10 10 10 11 11 11 11 12 12 12 12 13 13 12 12 12 12 11 11
0 1 1 0 1 1 1 1 2 2 2 2 3 3 4 4 3 5 4 6 8 8 8 9 9 9 10 10 11 11 11 11 11 12 12 13 13 13 13 13 13 12 12
1 1 1 1 1 1 1 2 2 3 3 3 3 3 3 3 2 3 4 4 6 8 8 9 9 10 10 10 11 11 11 11 11 11 12 12 13 13 13 13 13 12 12
1 2 1 1 1 1 2 2 2 2 3 3 3 3 2 2 3 4 5 4 4 4 7 9 10 9 9 10 10 10 11 11 11 11 11 12 12 12 12 13 13 13 12
1 2 1 1 1 1 2 2 1 2 2 3 3 2 3 3 4 4 4 4 4 4 4 7 9 9 9 8 9 10 10 11 11 11 11 11 11 12 12 12 12 12 12
2 3 2 1 2 1 2 2 2 2 2 3 3 2 3 4 4 4 5 4 4 5 4 5 7 8 9 8 7 8 8 8 10 10 11 11 11 11 11 11 12 12 11
1 2 2 1 2 2 2 2 2 2 2 1 2 2 2 4 4 3 3 3 3 4 4 4 5 5 7 10 9 8 8 8 8 9 10 11 11 11 11 11 11 11 11
2 1 1 2 1 2 2 2 2 2 2 1 2 2 2 2 3 3 3 3 3 3 4 4 4 4 4 5 7 9 9 8 8 8 9 10 11 11 11 12 12 12 11
1 2 1 2 2 2 1 2 2 2 2 2 2 2 2 1 1 2 3 3 2 2 3 3 4 4 5 4 6 8 9 9 8 8 8 9 10 11 11 12 12 12 12
1 1 1 1 2 2 2 3 1 2 2 2 2 2 3 3 2 1 2 2 3 3 3 3 3 4 4 4 4 5 7 8 8 9 9 9 9 10 12 12 12 12 12
1 1 1 1 2 2 2 2 2 3 2 3 2 2 2 3 4 3 3 2 2 2 2 3 2 3 3 4 4 5 7 7 7 8 9 9 9 9 10 12 13 12 12
1 1 1 2 2 2 2 2 2 2 2 3 3 3 3 3 3 4 4 3 3 2 2 2 3 3 3 4 4 4 6 6 7 8 8 8 9 9 10 11 12 12 12
1 2 2 2 2 2 2 2 2 2 2 3 3 3 3 3 3 4 4 4 3 2 1 2 2 2 3 3 3 4 5 6 7 7 8 8 8 9 10 10 11 12 12
2 2 1 1 2 2 2 2 2 2 2 3 3 3 3 3 3 3 3 3 3 3 2 2 2 3 3 3 2 5 5 7 8 8 8 8 8 9 9 9 10 11 11
1 1 1 1 1 2 2 3 2 3 3 3 3 3 3 3 3 3 3 4 4 4 4 3 2 2 3 3 3 5 5 6 8 8 9 9 9 9 8 9 10 11 11
1 1 1 1 1 1 1 2 2 2 3 3 3 3 3 3 3 3 3 4 4 5 4 2 2 2 2 3 3 5 5 6 9 9 9 9 8 8 9 9 10 10 11
0 1 1 1 2 2 2 2 3 3 3 3 3 3 3 4 4 3 3 3 3 4 5 4 2 1 2 3 2 4 5 5 5 9 9 9 8 8 8 9 9 10 11
0 0 1 2 2 2 2 3 3 3 3 3 4 4 4 3 3 4 3 4 3 4 5 4 3 2 2 3 3 4 3 3 3 5 8 8 8 8 8 8 8 9 10
1 1 1 2 3 3 3 3 4 4 4 4 4 4 4 3 4 3 4 3 3 3 3 4 3 2 2 2 2 3 2 2 3 2 6 8 8 9 9 8 8 9 9
1 2 2 2 3 3 4 4 4 4 4 4 4 4 3 3 3 3 3 3 3 3 3 4 3 2 2 2 2 3 2 2 3 2 1 3 6 10 10 9 8 8 8
1 2 2 2 3 3 3 4 5 5 4 4 4 3 3 2 4 4 4 4 4 4 3 3 3 2 2 2 2 3 3 2 3 2 3 3 3 4 6 9 8 8 8
1 2 2 3 3 3 5 6 6 5 4 4 4 4 3 2 1 1 3 4 5 5 4 4 3 3 3 4 3 3 3 3 3 1 3 3 3 3 3 3 6 8 9
1 2 2 3 3 4 5 5 6 5 4 4 4 4 4 3 3 3 2 2 3 4 5 5 5 5 4 4 4 4 3 4 4 3 3 4 3 3 3 2 8 8 8
2 2 2 3 3 4 5 5 6 5 4 4 4 4 3 3 3 4 4 4 4 3 4 4 5 5 5 4 4 5 5 5 5 4 3 4 4 4 4 2 8 9 9
2 2 2 2 3 3 4 5 6 4 3 4 4 3 3 3 3 4 4 5 5 5 3 3 3 3 3 4 4 4 4 4 4 4 3 4 4 4 4 4 4 10 10
3 3 2 3 3 3 3 4 5 3 4 4 3 3 1 3 3 4 5 5 6 6 5 4 4 5 5 4 5 5 5 5 4 4 2 3 4 3 4 3 2 3 5
Wind_Direction
266 204 241 272 252 224 211 214 220 222 226 222 233 241 244 243 236 229 197 183 201 212 214 215 212 213 214 214 211 208 207 206 205 206 206 205 204 203 203 201 199 202 202
320 285 251 280 265 248 270 258 240 233 240 237 242 248 252 246 238 238 228 198 195 205 210 210 209 208 210 211 210 208 206 205 204 202 204 208 208 209 207 203 202 203 204
327 288 292 269 325 308 263 246 248 242 234 233 228 228 232 236 233 234 234 224 198 190 196 204 208 211 214 212 210 207 205 206 204 206 207 208 208 208 206 204 203 204 205
266 273 279 300 323 284 272 254 252 250 243 242 231 230 226 219 223 225 225 223 223 208 194 196 203 208 214 214 212 207 204 205 204 206 207 207 206 205 204 205 205 206 208
258 260 262 333 270 270 285 281 247 262 251 245 236 226 230 225 226 220 221 222 219 222 211 189 194 200 207 212 212 207 204 203 203 205 206 204 204 203 204 205 205 206 208
263 279 244 222 279 273 278 286 263 251 253 253 256 236 236 234 230 221 224 215 214 218 221 211 202 194 194 197 199 195 191 194 197 197 199 202 205 203 203 204 207 210 210
273 270 290 250 268 268 271 263 254 232 235 237 257 254 233 227 217 216 220 221 211 213 216 217 214 208 193 188 190 191 190 189 191 197 200 202 206 205 203 204 208 211 211
289 253 280 275 277 273 260 264 246 259 235 210 249 264 239 221 212 208 204 207 214 207 209 208 207 207 213 198 178 187 192 194 194 195 202 206 209 208 207 207 209 211 212
292 320 306 299 292 284 281 273 257 248 257 235 261 288 281 272 274 205 213 211 216 224 224 210 205 199 206 204 198 185 187 194 198 203 206 208 211 213 213 211 211 211 212
312 293 288 290 288 289 289 275 279 271 266 257 249 264 300 312 270 249 219 200 204 218 229 234 219 206 210 207 191 177 180 196 204 209 210 210 210 213 215 215 215 216 214
309 312 293 289 282 285 297 307 312 286 273 274 269 281 280 275 269 267 265 255 238 229 220 224 226 220 217 215 204 185 184 201 208 215 216 214 214 217 218 217 217 219 219
329 0 331 320 296 298 286 287 295 280 291 297 288 285 281 285 286 275 269 263 263 256 230 218 225 221 216 216 214 164 186 208 212 214 215 218 222 223 222 221 220 220 220
355 11 355 342 331 325 307 300 297 312 296 286 279 281 284 285 288 282 276 274 273 266 238 224 223 228 230 224 215 170 199 210 214 216 219 223 226 225 224 224 221 221 220
6 17 4 359 348 335 321 315 307 316 311 288 289 294 287 291 284 276 278 282 273 265 253 256 234 232 233 231 212 208 214 203 214 218 222 227 228 226 224 223 220 219 221
358 20 19 28 8 349 334 319 331 329 328 310 299 279 276 287 289 281 276 275 272 272 271 251 238 239 241 232 217 231 234 204 209 218 223 228 228 226 223 223 221 220 222
4 344 319 341 333 311 294 297 303 326 321 319 305 303 290 285 283 282 274 272 274 272 273 270 268 263 266 251 214 235 235 204 205 213 220 223 223 224 225 225 224 222 221
314 314 308 300 300 300 291 284 299 306 300 307 306 294 293 301 296 287 280 282 277 269 265 273 277 262 243 258 259 252 241 231 217 198 210 217 219 222 222 223 225 224 220
346 339 292 293 296 301 300 292 294 303 300 300 306 307 299 295 296 295 294 286 283 276 263 266 274 270 257 249 249 253 251 249 250 185 194 204 208 214 217 219 221 222 219
330 323 303 312 312 312 303 294 291 294 294 293 297 301 303 300 294 301 294 295 288 278 267 261 267 279 266 263 262 254 257 267 267 198 194 200 205 209 213 216 217 220 219
338 330 329 320 317 313 307 297 290 287 288 290 295 296 296 301 299 298 290 290 288 281 268 257 260 267 264 266 264 259 268 269 279 282 271 237 212 208 207 205 209 215 215
348 351 336 328 317 305 313 310 296 286 288 292 299 301 303 325 339 319 310 314 297 279 273 266 263 272 280 277 271 269 277 283 278 290 291 268 238 228 213 204 204 206 207
342 346 341 324 317 337 7 347 316 295 294 296 301 303 299 286 330 328 334 327 313 285 281 276 266 269 275 275 271 266 264 269 277 281 282 282 275 260 249 230 178 191 201
316 330 327 324 328 0 8 346 325 298 294 302 306 304 305 331 331 317 322 279 283 290 284 277 276 273 272 264 261 261 258 269 278 276 281 281 277 270 255 197 152 174 190
314 314 316 325 330 354 11 343 327 297 300 308 308 301 304 318 333 332 313 309 300 287 266 261 273 276 275 278 259 256 260 255 262 249 244 264 266 268 268 232 160 172 184
300 298 310 322 324 336 6 344 325 311 318 313 311 312 307 310 9 342 307 305 306 298 261 236 258 274 300 281 264 258 253 251 256 247 229 246 262 272 266 249 180 175 185
289 296 308 311 309 319 0 344 330 314 320 310 306 304 359 340 353 325 297 295 295 300 304 291 264 250 252 248 233 244 250 250 260 265 235 238 257 268 264 250 235 192 195
Height
1533 1533 1533 1533 1534 1534 1534 1534 1535 1535 1536 1536 1536 1536 1537 1537 1537 1538 1537 1537 1538 1539 1539 1540 1541 1542 1543 1544 1545 1545 1546 1547 1548 1549 1550 1551 1552 1553 1554 1555 1556 1557 1558
1533 1533 1533 1532 1533 1533 1533 1533 1534 1534 1534 1534 1534 1534 1534 1534 1534 1534 1535 1535 1535 1536 1537 1538 1538 1539 1540 1541 1542 1543 1544 1545 1546 1547 1548 1549 1550 1551 1552 1554 1555 1556 1557
1532 1532 1533 1532 1532 1532 1532 1533 1533 1533 1533 1533 1532 1532 1532 1532 1532 1531 1532 1533 1533 1533 1534 1535 1536 1536 1537 1539 1540 1541 1542 1543 1544 1545 1546 1547 1548 1549 1550 1552 1553 1554 1555
1532 1532 1532 1532 1531 1532 1532 1532 1531 1531 1531 1531 1531 1530 1530 1529 1529 1529 1530 1530 1531 1532 1532 1532 1533 1534 1535 1536 1537 1538 1539 1540 1541 1542 1544 1545 1546 1547 1548 1549 1551 1552 1553
1532 1532 1532 1531 1531 1531 1531 1531 1530 1529 1529 1529 1529 1528 1528 1527 1527 1527 1527 1527 1528 1529 1529 1529 1530 1531 1532 1533 1534 1535 1536 1538 1539 1540 1541 1542 1543 1544 1546 1547 1548 1549 1551
1531 1531 1532 1530 1530 1530 1529 1529 1528 1528 1527 1527 1527 1526 1525 1525 1525 1524 1525 1525 1525 1526 1527 1527 1528 1529 1529 1530 1532 1533 1534 1535 1536 1537 1538 1539 1540 1542 1543 1544 1546 1547 1548
1530 1530 1530 1529 1529 1528 1527 1527 1526 1526 1526 1525 1525 1524 1523 1523 1522 1522 1522 1523 1523 1524 1524 1525 1526 1527 1527 1527 1529 1530 1531 1532 1533 1534 1536 1537 1538 1539 1540 1541 1543 1544 1545
1529 1529 1528 1528 1528 1527 1526 1526 1525 1525 1525 1524 1524 1523 1522 1522 1521 1521 1521 1521 1521 1522 1522 1523 1523 1524 1525 1526 1527 1527 1528 1529 1531 1532 1533 1534 1535 1536 1537 1538 1540 1541 1542
1527 1527 1527 1527 1526 1526 1526 1525 1524 1524 1524 1523 1523 1523 1522 1520 1519 1519 1519 1519 1519 1519 1520 1521 1521 1522 1523 1524 1524 1525 1525 1527 1528 1529 1530 1531 1532 1533 1534 1536 1537 1538 1539
1526 1526 1526 1525 1525 1525 1524 1524 1524 1523 1522 1522 1521 1520 1521 1520 1519 1518 1518 1517 1517 1517 1517 1518 1519 1520 1520 1521 1522 1522 1523 1524 1525 1526 1527 1528 1529 1530 1531 1533 1534 1535 1536
1525 1525 1525 1525 1524 1524 1523 1523 1522 1521 1521 1521 1520 1520 1519 1518 1518 1517 1516 1516 1515 1515 1515 1515 1516 1517 1518 1519 1519 1520 1520 1521 1522 1524 1524 1525 1526 1527 1529 1530 1531 1532 1533
1525 1524 1524 1523 1523 1523 1522 1521 1521 1520 1520 1519 1518 1518 1518 1518 1517 1516 1514 1513 1513 1513 1513 1513 1514 1515 1516 1517 1517 1517 1518 1519 1519 1520 1521 1522 1523 1524 1525 1526 1527 1528 1529
1524 1523 1523 1522 1522 1521 1521 1520 1520 1519 1518 1517 1517 1517 1517 1516 1515 1515 1513 1512 1511 1511 1511 1511 1512 1512 1513 1514 1514 1514 1515 1515 1516 1517 1518 1519 1520 1521 1522 1523 1524 1525 1526
1523 1522 1522 1521 1521 1520 1520 1519 1519 1518 1517 1516 1516 1515 1515 1514 1514 1513 1512 1511 1510 1510 1510 1510 1510 1510 1511 1511 1511 1511 1512 1512 1513 1513 1514 1515 1516 1517 1518 1519 1520 1521 1522
1522 1521 1521 1520 1520 1519 1519 1518 1518 1516 1516 1515 1515 1514 1513 1513 1512 1511 1511 1510 1510 1508 1508 1508 1508 1508 1508 1508 1508 1508 1509 1509 1509 1510 1510 1511 1512 1513 1514 1515 1516 1517 1518
1520 1520 1520 1519 1519 1518 1517 1517 1516 1515 1514 1514 1512 1511 1511 1511 1510 1510 1509 1509 1508 1508 1507 1506 1506 1506 1505 1506 1505 1505 1506 1505 1506 1506 1506 1507 1507 1508 1509 1510 1511 1512 1514
1519 1518 1518 1518 1518 1517 1516 1515 1515 1514 1513 1512 1511 1510 1509 1509 1508 1508 1507 1507 1506 1506 1505 1504 1504 1503 1502 1502 1502 1502 1503 1503 1503 1503 1503 1503 1503 1504 1505 1506 1507 1508 1509
1518 1517 1517 1517 1516 1516 1515 1515 1514 1513 1512 1510 1510 1508 1507 1507 1506 1506 1505 1504 1504 1503 1503 1501 1501 1501 1500 1500 1499 1499 1500 1500 1500 1500 1499 1499 1499 1499 1500 1501 1502 1504 1505
1517 1516 1516 1515 1515 1515 1514 1513 1512 1511 1510 1509 1508 1507 1506 1505 1504 1504 1503 1502 1502 1501 1501 1500 1499 1498 1497 1497 1497 1497 1497 1496 1497 1497 1496 1496 1496 1496 1497 1497 1498 1499 1500
1516 1515 1514 1514 1514 1513 1512 1511 1510 1509 1508 1507 1506 1505 1504 1503 1502 1501 1501 1500 1500 1499 1498 1497 1497 1496 1495 1494 1494 1494 1494 1494 1494 1494 1493 1493 1493 1493 1493 1493 1494 1495 1496
1515 1514 1513 1513 1512 1512 1511 1509 1509 1508 1506 1505 1504 1503 1502 1501 1500 1499 1499 1498 1497 1497 1496 1495 1494 1494 1493 1492 1492 1492 1491 1491 1490 1490 1490 1490 1490 1490 1490 1490 1490 1491 1492
1514 1513 1512 1512 1511 1510 1509 1507 1506 1505 1504 1503 1502 1501 1500 1499 1498 1497 1496 1495 1494 1494 1493 1493 1492 1491 1490 1490 1489 1489 1489 1488 1488 1488 1487 1488 1488 1487 1487 1487 1486 1487 1488
1513 1511 1511 1510 1509 1508 1507 1505 1504 1503 1502 1501 1500 1499 1499 1498 1496 1495 1493 1492 1491 1490 1490 1489 1489 1488 1488 1487 1486 1486 1486 1485 1485 1484 1485 1485 1485 1485 1484 1484 1483 1484 1485
1511 1510 1510 1509 1508 1507 1505 1504 1503 1501 1501 1499 1498 1497 1496 1495 1494 1492 1491 1490 1489 1488 1487 1486 1485 1485 1484 1483 1483 1483 1482 1482 1481 1481 1481 1482 1482 1482 1482 1481 1481 1481 1481
1510 1510 1509 1507 1506 1505 1504 1502 1501 1499 1498 1497 1496 1495 1493 1492 1491 1489 1488 1487 1486 1485 1484 1482 1482 1481 1480 1479 1479 1479 1479 1479 1479 1478 1478 1478 1478 1479 1479 1479 1478 1478 1478
1509 1509 1507 1506 1505 1503 1502 1500 1498 1497 1496 1495 1494 1493 1491 1490 1488 1487 1485 1484 1482 1482 1481 1479 1478 1477 1476 1476 1475 1475 1475 1476 1476 1476 1475 1475 1475 1475 1476 1476 1475 1475 1475